Главная страница
METAR-TAF:

METAR-TAF

Аэропорты :

Миккели, Финляндия

широта: 61-44N, долгота: 027-18E, высота над уровнем моря: 138 м

Текущие метеонаблюдения

Эта сводка был подготовлена 20 минут назад, в 02:50 UTC
Штиль
Температура 12°C
Влажность 100%
Давление 1020 hPa
Видимость: 7000 м
Сплошная облачность на высоте 200 фута

METAR: EFMI 170250Z AUTO 00000KT 7000 OVC002 12/12 Q1020

Время: 06:10 (03:10 UTC)


TAF: отсутствует

Метеонаблюдения и прогнозы для более 4000 аэропортов (сводки METAR и TAF).

Имеющиеся станции представлены на карте желтыми и красными точками.

Чтобы увидеть название станции, наведите на нее мышь.

Затем щелкните, чтобы увидеть метеонаблюдения и метеопрогнозы.

Управление картой: чтобы увеличить масштаб, щелкните зеленые кнопки с черным крестиком; чтобы уменьшить масштаб, щелкните зеленую кнопку с тире; для просмотра соседних карт щелкайте зеленые стрелки.


METAR-TAF: